Location: Buchloe
(48.0161°N, 10.7316°E)
Time: 20:25:30
(UTC+01:00)

ISS - Visible Passes

Search period start: 19 January 2021 00:00
Search period end: 29 January 2021 00:00
Orbit: 418 x 419 km, 51.6° (Epoch: 20 January)

Date Brightness Start Highest point End Pass type
(mag) Time Alt. Az. Time Alt. Az. Time Alt. Az.
19 Jan -1.5 19:29:10 10° SW 19:30:32 22° SW 19:30:32 22° SW visible
20 Jan -2.9 18:41:43 10° SSW 18:44:48 34° SE 18:45:00 34° SE visible
21 Jan -2.2 17:54:29 10° SSW 17:57:12 23° SE 17:59:23 13° E visible
21 Jan -2.1 19:30:21 10° WSW 19:32:21 33° WSW 19:32:21 33° WSW visible
22 Jan -3.8 18:42:36 10° WSW 18:45:58 75° SSE 18:46:40 51° E visible
23 Jan -3.3 17:54:58 10° SW 17:58:14 51° SSE 18:00:56 14° ENE visible
23 Jan -2.0 19:31:47 10° W 19:33:53 32° WNW 19:33:53 32° WNW visible
24 Jan -3.5 18:43:54 10° W 18:47:14 62° NNW 18:48:07 43° NE visible
25 Jan -3.7 17:56:03 10° WSW 17:59:25 81° NNW 18:02:18 14° ENE visible
25 Jan -1.9 19:33:14 10° WNW 19:35:14 29° NW 19:35:14 29° NW visible
26 Jan -3.1 18:45:20 10° W 18:48:35 45° N 18:49:24 36° NE visible
27 Jan -3.3 17:57:24 10° W 18:00:42 51° NNW 18:03:34 13° ENE visible
27 Jan -2.0 19:34:34 10° WNW 19:36:30 29° NW 19:36:30 29° NW visible
28 Jan -3.1 18:46:41 10° WNW 18:49:56 43° N 18:50:40 36° NE visible
28 Jan -0.2 20:23:34 10° WNW 20:23:37 10° WNW 20:23:37 10° WNW visible
